Home   Weather   Luanda   Past weeks
Flag for Angola

Past Weather in Luanda, Angola — Yesterday and Last 2 Weeks

Now
81 °F

Passing clouds.


Feels Like: 87 °F
Forecast: 85 / 81 °F
Wind: 7 mph from Southeast

Location: Luanda Airport

Current Time: Mar 19, 2019 at 1:25:25 am

Latest Report: Mar 19, 2019 at 1:00 am


Visibility: N/A

Pressure: 29.83 "Hg

Humidity: 89%

Dew Point: 77 °F

Location of LuandaLocation

Past Weather in Luanda — Graph

°F

Luanda Temperature Yesterday

Maximum temperature yesterday: 91 °F (at 1:00 pm)
Minimum temperature yesterday: 81 °F (at 12:00 am)
Average temperature yesterday: 84 °F

High & Low Weather Summary for the Past Weeks

 TemperatureHumidityPressure
High91 °F (Mar 10, 3:00 pm)94% (Mar 4, 3:00 am)29.98 "Hg (Mar 4, 3:00 am)
Low75 °F (Mar 5, 7:00 am)55% (Mar 13, 12:00 pm)29.71 "Hg (Mar 14, 4:00 pm)
Average83 °F78%29.85 "Hg
* Reported Mar 4 12:00 am — Mar 19 12:00 am, Luanda. Weather by CustomWeather, © 2019

Note: Actual official high and low records may vary slightly from our data, if they occured in-between our weather recording intervals... More about our weather records

Advertising

Luanda Weather History for the Previous 24 Hours

Scroll right to see more
 ConditionsComfort  
Time TempWeatherWind HumidityBarometerVisibility
12:00 am
Tue, Mar 19
81 °FPassing clouds.7 mph84%29.86 "HgN/A
11:00 pm
Mon, Mar 18
81 °FPassing clouds.7 mph84%29.86 "HgN/A
10:00 pm81 °FPassing clouds.5 mph79%29.83 "HgN/A
9:00 pm81 °FPassing clouds.5 mph79%29.83 "HgN/A
8:00 pm82 °FPartly cloudy.5 mph74%29.80 "HgN/A
7:00 pm82 °FPartly cloudy.7 mph79%29.77 "HgN/A
6:00 pm84 °FPartly sunny.6 mph70%29.74 "HgN/A
5:00 pm84 °FPassing clouds.10 mph74%29.74 "HgN/A
4:00 pm86 °FPassing clouds.12 mph75%29.74 "HgN/A
3:00 pm88 °FPassing clouds.13 mph70%29.77 "HgN/A
2:00 pm91 °FScattered clouds.12 mph63%29.80 "HgN/A
1:00 pm91 °FScattered clouds.9 mph59%29.83 "HgN/A
12:00 pm90 °FScattered clouds.9 mph71%29.86 "HgN/A
11:00 am88 °FScattered clouds.6 mph75%29.86 "HgN/A
10:00 am86 °FBroken clouds.6 mph75%29.89 "HgN/A
9:00 am86 °FScattered clouds.5 mph75%29.89 "Hg6 mi
8:00 am84 °FScattered clouds.5 mph79%29.83 "Hg5 mi
7:00 am81 °FScattered clouds.2 mph89%29.83 "Hg5 mi
4:00 am81 °FPassing clouds.5 mph89%29.80 "HgN/A
3:00 am81 °FPartly cloudy.3 mph89%29.80 "HgN/A
2:00 am81 °FPassing clouds.3 mph89%29.83 "HgN/A
1:00 am81 °FPassing clouds.3 mph89%29.83 "HgN/A
Weather by CustomWeather, © 2019

See weather overview